Location: Alafon
(8.4500°N, 4.2333°E)
Time: 18:44:03
(UTC+00:00)

A-11 Canister half - Pass Details

Date: 08 August 2021
Orbit: 1515 x 1685 km, 47.2° (Epoch: 19 September)

Event Time Altitude Azimuth Distance (km) Brightness Sun altitude
Rises 20:31:38 0° 342° (NNW) 4,904 12.2 -35.5°
Reaches altitude 10° 20:36:29 10° 1° (N) 3,933 11.4 -36.6°
Enters shadow 20:42:15 17° 37° (NE) 3,394 10.7 -37.8°
Maximum altitude 20:42:33 17° 39° (NE) 3,393 - -37.9°
Drops below altitude 10° 20:48:35 10° 76° (ENE) 3,938 - -39.2°
Sets 20:53:21 0° 95° (E) 4,914 - -40.3°
